Total_Precipitation_Accumulation
1.75 1.87 1.83 2.03 2.05 2.15 2.34 2.67 2.73 2.87 2.89 2.84 2.52 2.20 2.09 1.95 1.79 1.89 2.08 2.00 1.88 2.08 2.53 2.91 2.82 2.55 2.18 1.98 1.76 1.60 1.47 1.42 1.26 0.99 0.90 0.98 0.96 0.89 0.81 0.76 0.70 0.65 0.54
2.28 2.47 2.47 2.50 2.32 2.31 2.57 2.81 2.95 3.38 3.29 3.18 2.70 2.41 2.17 2.09 1.91 1.85 2.09 2.24 1.90 1.85 2.16 2.78 3.08 2.80 2.43 2.22 2.04 1.82 1.64 1.53 1.42 1.07 0.87 0.89 0.95 0.93 0.87 0.82 0.72 0.61 0.51
2.62 2.76 2.74 2.66 2.63 2.62 2.80 2.98 3.14 3.27 3.07 2.96 2.81 2.59 2.35 2.14 1.88 1.86 1.94 2.14 2.02 1.86 1.99 2.29 2.65 2.71 2.61 2.50 2.39 2.15 1.79 1.58 1.38 1.13 0.87 0.80 0.82 0.85 0.85 0.85 0.76 0.61 0.44
2.80 3.06 2.89 2.77 3.06 2.92 3.05 3.41 3.43 3.41 3.34 3.15 2.99 2.74 2.49 2.27 1.84 1.74 1.74 1.97 2.27 1.97 1.96 2.14 2.27 2.33 2.60 2.74 2.73 2.60 2.27 1.84 1.44 1.21 1.00 0.94 0.93 0.90 0.87 0.81 0.75 0.59 0.42
2.71 2.94 2.83 2.87 2.97 3.23 3.29 3.07 3.54 3.56 3.45 3.29 2.77 2.56 2.26 2.05 1.85 1.66 1.71 1.73 1.99 1.91 1.86 1.91 2.01 2.11 2.54 3.09 3.25 3.18 2.96 2.53 1.99 1.66 1.60 1.53 1.48 1.30 1.08 0.91 0.77 0.62 0.45
2.59 2.95 2.78 2.73 2.84 3.15 3.15 3.13 3.45 3.43 3.18 3.20 2.62 2.29 2.12 1.78 1.76 1.75 1.56 1.56 1.63 1.45 1.56 1.78 2.15 1.84 1.99 2.36 2.83 3.24 3.39 3.30 2.89 2.75 2.80 2.55 2.33 1.91 1.40 1.10 0.88 0.74 0.60
2.46 2.83 2.61 2.84 2.78 2.87 2.90 2.91 3.17 3.24 2.94 3.02 2.98 2.50 1.94 1.59 1.56 1.53 1.52 1.54 1.41 1.48 1.82 2.10 2.23 2.23 2.00 1.79 1.92 2.45 3.16 3.56 3.34 3.09 3.21 3.26 3.16 2.57 1.80 1.38 1.07 0.85 0.72
2.28 2.43 2.59 2.47 2.53 2.68 2.70 2.73 2.96 2.92 2.57 2.69 2.91 2.91 2.29 1.96 1.55 1.18 1.44 1.49 1.44 1.64 1.75 1.82 2.12 2.38 2.31 2.42 1.93 1.75 2.35 3.08 3.38 3.22 3.08 3.27 3.31 2.72 2.06 1.77 1.41 1.08 0.92
2.10 2.17 2.30 2.31 2.33 2.25 2.44 2.62 2.53 2.53 2.41 2.35 2.53 2.86 2.54 2.13 1.74 1.29 1.14 1.22 1.42 1.61 1.64 1.77 1.76 1.89 1.99 2.41 2.42 1.96 1.79 2.04 2.71 3.35 3.38 3.24 3.10 2.64 2.22 2.04 1.82 1.43 1.20
1.86 1.88 1.93 1.94 2.00 2.01 2.27 2.09 2.07 2.28 2.38 2.25 2.32 2.31 2.28 2.32 2.20 1.63 1.21 1.15 1.35 1.46 1.45 1.41 1.53 1.72 1.79 2.00 2.16 1.97 1.72 1.59 1.91 2.62 3.15 3.22 2.97 2.49 2.23 2.23 2.36 2.11 1.62
1.79 1.68 1.75 1.75 1.74 1.75 1.87 1.90 2.13 2.14 2.17 2.16 2.14 2.12 2.19 2.20 2.08 1.90 1.54 1.40 1.35 1.19 1.20 1.27 1.40 1.60 1.76 1.87 2.04 1.84 1.82 1.60 1.63 1.81 2.24 2.63 2.75 2.64 2.36 2.36 2.72 2.82 2.44
1.61 1.60 1.63 1.66 1.61 1.65 1.78 1.83 1.87 1.85 1.91 1.97 1.93 1.90 2.05 1.99 1.93 2.01 1.72 1.57 1.51 1.25 1.24 1.28 1.31 1.46 1.53 1.61 1.49 1.58 1.58 1.39 1.35 1.35 1.40 1.69 2.03 2.21 2.26 2.39 2.75 2.99 2.94
1.37 1.36 1.47 1.50 1.47 1.51 1.64 1.71 1.65 1.68 1.77 1.81 1.77 1.79 1.89 1.84 1.83 1.96 2.02 1.83 1.67 1.38 1.38 1.34 1.27 1.39 1.33 1.52 1.48 1.30 1.13 1.06 0.96 0.94 0.98 1.11 1.30 1.50 1.69 1.96 2.36 2.70 2.85
1.25 1.29 1.38 1.36 1.37 1.40 1.43 1.64 1.66 1.70 1.76 1.76 1.69 1.93 1.89 1.69 1.72 1.85 2.06 2.23 2.10 1.75 1.65 1.50 1.30 1.22 1.28 1.35 1.29 1.08 0.88 0.80 0.74 0.71 0.69 0.77 0.91 1.02 1.16 1.35 1.64 1.88 2.08
1.48 1.47 1.44 1.43 1.47 1.54 1.64 1.80 1.85 1.83 1.88 1.86 1.91 2.02 1.87 1.68 1.64 1.70 2.00 2.26 2.43 2.16 1.87 1.64 1.46 1.16 1.17 1.13 1.11 1.01 0.99 0.81 0.61 0.59 0.59 0.55 0.59 0.69 0.78 0.89 1.01 1.17 1.29
1.66 1.63 1.59 1.54 1.52 1.60 1.76 1.89 1.92 1.90 1.95 1.97 1.99 2.08 2.04 1.89 1.88 1.87 2.02 2.22 2.39 2.45 2.08 1.70 1.62 1.34 1.24 1.06 1.07 0.98 0.89 0.83 0.62 0.52 0.52 0.50 0.50 0.53 0.57 0.65 0.72 0.80 0.90
1.61 1.53 1.46 1.44 1.45 1.48 1.54 1.61 1.59 1.62 1.62 1.69 1.68 1.81 1.93 2.05 2.04 2.01 2.07 2.12 2.28 2.46 2.17 1.98 2.03 1.88 1.65 1.40 1.22 1.08 0.91 0.86 0.74 0.61 0.51 0.52 0.53 0.54 0.56 0.60 0.62 0.67 0.73
1.33 1.23 1.25 1.26 1.22 1.19 1.23 1.23 1.21 1.32 1.45 1.56 1.66 1.72 1.65 1.70 1.77 1.82 1.91 2.03 2.19 2.42 2.30 2.27 2.40 2.36 2.09 1.72 1.54 1.38 1.07 0.92 0.84 0.78 0.63 0.53 0.53 0.54 0.54 0.58 0.61 0.63 0.66
1.01 0.97 1.03 1.06 1.03 1.01 1.00 1.01 1.09 1.19 1.31 1.41 1.48 1.47 1.40 1.44 1.48 1.59 1.65 1.79 1.96 2.20 2.32 2.40 2.54 2.52 2.28 2.03 1.90 1.58 1.34 1.26 1.01 0.95 0.84 0.66 0.55 0.54 0.57 0.58 0.62 0.66 0.66
0.88 0.90 0.95 0.98 0.99 1.03 1.09 1.20 1.28 1.31 1.33 1.30 1.22 1.18 1.16 1.24 1.31 1.45 1.55 1.57 1.69 1.92 2.09 2.25 2.47 2.50 2.37 2.28 2.22 1.89 1.67 1.57 1.36 1.13 1.06 0.85 0.73 0.63 0.60 0.60 0.62 0.69 0.77
0.82 0.91 1.01 1.06 1.11 1.11 1.03 1.16 1.30 1.28 1.29 1.23 1.14 1.00 0.92 0.98 1.05 1.17 1.16 1.35 1.54 1.74 1.86 2.04 2.28 2.51 2.38 2.33 2.19 2.05 1.87 1.80 1.68 1.45 1.38 1.10 0.92 0.77 0.64 0.61 0.65 0.73 0.88
0.94 0.97 0.96 1.00 0.98 0.81 0.86 1.00 1.12 1.17 1.22 1.22 1.13 1.00 0.88 0.87 0.91 0.99 1.03 1.10 1.25 1.45 1.64 1.93 2.14 2.32 2.21 2.14 2.23 2.24 2.18 1.98 1.88 1.74 1.84 1.71 1.47 1.31 1.04 0.80 0.73 0.75 0.87
0.97 1.03 1.00 0.98 0.96 0.92 0.94 0.93 0.91 1.01 1.08 1.09 1.12 1.11 0.92 0.78 0.90 0.91 0.95 0.94 1.02 1.13 1.29 1.59 1.80 1.91 2.06 2.05 2.27 2.38 2.49 2.38 2.23 2.11 2.28 2.28 2.11 1.93 1.34 1.11 1.05 0.88 0.84
1.05 1.06 1.06 1.03 1.10 1.07 1.00 0.88 0.86 0.88 0.99 1.02 1.01 1.00 1.00 1.00 0.95 0.92 0.97 0.98 0.89 0.90 0.98 1.04 1.23 1.53 2.02 2.30 2.31 2.38 2.60 2.60 2.42 2.32 2.41 2.53 2.31 2.23 1.78 1.34 1.09 0.83 0.74
1.07 1.05 1.06 1.00 1.01 1.06 0.99 0.84 0.81 0.84 0.98 1.04 1.03 0.98 0.93 0.94 0.94 0.85 0.90 0.94 0.90 0.86 0.87 0.97 1.09 1.31 1.57 1.89 2.08 2.16 2.27 2.41 2.50 2.46 2.44 2.56 2.47 2.36 2.36 2.05 1.47 1.08 0.81
1.19 1.15 1.10 1.04 1.02 1.04 0.93 0.72 0.72 0.78 0.90 0.97 1.03 0.95 0.82 0.74 0.75 0.76 0.86 0.94 0.88 0.85 0.91 0.95 0.97 1.06 1.21 1.38 1.46 1.46 1.58 1.73 1.92 2.10 2.05 2.24 2.47 2.55 2.75 2.71 2.21 1.60 1.20